Location: Unspecified
(51.5147°N, 7.4673°E)
Time: 05:54:43
(UTC+01:00)

A-11 Canister half - Pass Details

Date: 23 February 2026
Orbit: 1524 x 1683 km, 47.3° (Epoch: 14 March)

Event Time Altitude Azimuth Distance (km) Brightness Sun altitude
Rises 18:18:51 0° 263° (W) 4,714 14.6 -3.7°
Reaches altitude 10° 18:21:56 10° 262° (W) 3,717 13.0 -4.2°
Maximum altitude 18:31:11 69° 181° (S) 1,612 9.2 -5.6°
Drops below altitude 10° 18:40:23 10° 101° (E) 3,698 10.4 -7.1°
Enters shadow 18:41:26 - 100° (E) 4,034 10.6 -7.2°
